ONEWEB-0093 (45444 NORAD) Tracking and Keplerian Element Data

This shows tracking and keplerian element data for the satellite.

Feedback or suggestion? Click here.




ElementValue
Catalog45444
NameONEWEB-0093
Epoch Orbit1592
Epoch Day187.58334491
Epoch Year2020
RAAN104.2277
Inclination87.5933
Eccentricity0.0025076
Argument of Perigee268.4006
Mean Anonmoly197.4916
Mean Motion14.90125568
Decay Rate0.00040485
L11 45444U 20020W 20187.58334491 .00040485 00000-0 41412-2 0 9995
L22 45444 87.5933 104.2277 0025076 268.4006 197.4916 14.90125568 15922

Live tracking and technical data element details for ONEWEB-0093 (NORAD 45444). ONEWEB-0093 can be tracked NOW for your location showing map with azimuth and elevation plus other details from your city location.

Track the satellite on the map from your city or location and see movement details for azimuth, elevation, latitude, longitude, range, height, and movement on the map or in text.







IsCatalogInMostPopularTable: catalog: 45444, numindb: 22
Update: records affected: 1



GetName: 45444 ONEWEB-0093

Hit Count: updated at: Mon, 06 Jul 2020 05:19:31 GMT